Погода Аскино

Погода Аскино : погода сейчас, прогноз погоды и архив. Всё, что Вы хотите узнать о погоде Аскино!

Поиск расширенной информации на нашем сайте:

Другие новости

Новости СМИ2

Главная страница сайта

Новости сайта

03.07.2017

Напоминаем, что на нашем специализированном сайте Метеоцентр.Азия вы можете получить высокодетализированные автоматические прогнозы погоды по пунктам России, СНГ и мира в авиационном формате (включающие направление и скорость ветра, видимость, явления погоды, количество и форму облачности, нижнюю и верхнюю границу облачности).


Погода Аскино - сегодня

Время (UTC), дата Ветер
(°,м/с) 
Видим.   Явления Облачность Т
(°С)
Тd
(°С)
f(%) Тe
(°С)
Pmin
(гПа)
dP
(гПа)
Po
(мм)
O2
(г/м3)
Тmin Tmax R s Состояние
почвы
15 20.07.17 320 (СЗ) 20000 м    4/4 1500 м 
[Cu hum]
+23 +14.4 58 +31  1013.3  0.1  742  273    +25.5       
18 20.07.17 350 (С) н/о    3/3 1500 м 
[Cu hum]
+17.4 +15.1 86 +28  1014.3  0.5  743  278           
21 20.07.17 тихо ()   н/о    ясно 
+14.2 +13.2 94 +20  1014.7  0.2  743  282           
00 21.07.17 050 (СВ) 4000 м  дымка  3/0 средняя 
[Ac lent]
+11.5 +10.7 95 +15  1015.1  0.1  743  285           
03 21.07.17 270 (З) 20000 м    ясно 
+17.2 +14.7 85 +27  1015.3  0.8  743  279  +11.5        сухая 
06 21.07.17 090 (В) 20000 м    3/3 1000 м 
[Cu med, cong]
+24 +14.6 56 +32  1014.2  -0.6  743  272           
09 21.07.17 240 (ЮЗ) 20000 м    9/6 1000 м средняя, верхняя 
[Cu med, cong|Ac As|Ci sp]
+25.4 +13.3 47 +32  1013.3  -0.8  742  271           
12 21.07.17 180 (Ю) 20000 м    9/4 1000 м средняя, верхняя 
[Cu med, cong|Ac As|Cs]
+25.8 +13.4 46 +32  1012.1  -1.1  741  270           
15 21.07.17 270 (З) 20000 м    6/3 1500 м средняя, верхняя 
[Cu med, cong|Ac trans|Ci sp]
+23 +15.7 63 +33  1011.1  -1.1  741  272    +27       
18 21.07.17 220 (ЮЗ) н/о    9/8 1000 м средняя 
[Cu med, cong|Ac cuf]
+20.3 +16.6 79 +32  1011.5  0.1  741  274           
21 21.07.17 170 (Ю) н/о    3/1 1000 м средняя 
[Cu med, cong|Ac cuf]
+17.7 +16.1 90 +30  1010.5  -1.1  740  276           
00 22.07.17 130 (ЮВ) 4000 м  дымка  6/0 средняя 
[Ac cuf]
+15.6 +14.1 91 +24  1010.7  0.1  740  279           
03 22.07.17 180 (Ю) 10 км    9/8 1000 м средняя 
[Cu med, cong|Ac cuf]
+18.2 +15.3 83 +29  1009.7  -0.7  739  276  +15.3        сухая 
06 22.07.17 150 (ЮВ) 3{10}  10 км  гроза, ливневой дождь  10/8 600 м кучево-дожд., средняя 
[Cb calv|Ac und]
+15.7 +14.3 91 +24  1010.1  0.1  739  279  +15         
09 22.07.17 240 (ЮЗ) 10 км  гроза, ливневой дождь  10/9 600 м кучево-дожд., средняя 
[Cb cap|Ac und]
+18.1 +15.4 84 +29  1009.4  -0.5  739  276           
12 22.07.17 270 (З) 10 км  слаб. ливневой дождь{гроза}  8/5 600 м кучево-дожд., средняя 
[Cb calv|Ac cuf]
+20.1 +14.8 72 +29  1009.3  0.1  739  274           
18 22.07.17 тихо ()   н/о  {ливн. осадки}  3/3 1000 м 
[Cu med, cong]
+14.6 +10.8 78 +17  1011.2  1.3  740  281           
21 22.07.17 270 (З) н/о    3/0 средняя 
[Ac lent]
+11 +10 94 +13  1011.3  -0.2  740  285           
00 23.07.17 230 (ЮЗ) 4000 м  дымка  ясно 
+11.6 +10.8 95 +15  1011.3  740  284           
03 23.07.17 240 (ЮЗ) 20000 м    3/0 верхняя 
[Ci sp]
+15.2 +13 87 +22  1011.4  0.4  740  280  +10.6        мокрая 
06 23.07.17 290 (З) 20000 м    8/6 1000 м верхняя 
[Cu med, cong|Ci ing]
+19.3 +12.9 66 +26  1011.1  740  276           
09 23.07.17 280 (З) 20000 м    8/8 1000 м 
[Cu med, cong]
+21.1 +12.4 58 +26  1010.5  -0.4  740  274           
12 23.07.17 330 (СЗ) 20000 м    8/6 1000 м верхняя 
[Cu med, cong|Ci fib]
+21.4 +13.1 59 +27  1010.1  -0.4  740  274           
15 23.07.17 250 (З) 20000 м    6/3 1000 м верхняя 
[Cu med, cong|Ci fib]
+21.4 +12.9 58 +27  1009.8  -0.3  740  274    +23       
18 23.07.17 220 (ЮЗ) н/о    ясно 
+16.1 +13.4 84 +23  1009.7  -0.5  739  279           
Время (UTC), дата Ветер
(°,м/с) 
Видим.   Явления Облачность Т
(°С)
Тd
(°С)
f(%) Тe
(°С)
Pmin
(гПа)
dP
(гПа)
Po
(мм)
O2
(г/м3)
Тmin Tmax R s Состояние
почвы

Для получения пояснительной информации подведите курсор к названию столбца.

ПОГОДА Аскино - архив

Всё, что Вы хотите узнать о погоде Аскино - удобно и подробно!

Выберите нужную дату (начиная с 1 января 2015* года) и нажмите кнопку "Найти".
Будут отображены архивные сводки погоды по пункту Аскино, начиная с указанной даты.


Отображать данные в формате CSV (для использования в таблицах Excel)


Внимание! Наш архив погоды предназначен исключительно для личного некоммерческого использования в познавательных целях. Если Вам необходимы официальные справки о состоянии погоды (для производственных, юридических, коммерческих и т.п. целей), обращайтесь в органы Росгидромета.

*Примечание: данная дата относится к архиву по метеостанциям СССР (Россия, СНГ, Балтия).
Архив по метеостанциям Зарубежной Европы и Азии (кроме Китая) хранится 10 дней, по другим регионам земного шара (Китай, Африка, Америка, Австралия, Океания) - 1 день.

Аскино - район местоположения метеостанции


Название, широта, долгота, высота метеостанции:
Аскино 56.1°ш. 56.6°д. 207 м над ур. моря [Российская Федерация]

Дополнительная информация

В oтличие oт бoльшинства пoгoдных сайтoв мы публикуем пoдрoбную метеoинфoрмацию в детальнoм прoфессиoнальнoм фoрмате.

Характеристики температуры и влажнoсти вoздуха измеряются на высoте 2 м в тени вдали oт зданий и деревьев.
Скoрoсть ветра измеряется на высoте 10 м (на урoвне рoста челoвека скoрoсть ветра ниже в 1.5-2 раза). Если метеoстанция нахoдится в гoрoде или в лесу, тo скoрoсть ветра занижена на 2-4 м/с пo сравнению с oткрытым местoм. Скoрoсть ветра над акватoриями крупных рек и oзёр, а также на вершинах хoлмoв на 2-5 м/с выше, чем в oбычных услoвиях.
Атмoсфернoе давление в разных тoчках местнoсти мoжет значительнo oтличаться oт давления на метеoстанции, в зависимoсти oт услoвий рельефа (при пoдъёме на 10 м давление пoнижается примернo на 1 мм рт.ст.).